Location: Arbon
(43.0005°N, 0.7472°E)
Time: 11:31:23
(UTC+00:00)

CZ-2C R/B - Pass Details

Date: 22 April 2026
Orbit: 781 x 868 km, 98.4° (Epoch: 15 May)

Event Time Altitude Azimuth Distance (km) Brightness Sun altitude
Exits shadow 23:29:08 32° 42° (NE) 1,422 4.1 -34.2°
Drops below altitude 10° 23:32:53 10° 4° (N) 2,452 5.9 -34.3°
Sets 23:35:23 0° 355° (N) 3,376 6.9 -34.3°
